Paynesville, MN

9:46 PM CDT on April 30, 2017 (GMT -0500)
Paynesville

Weather History for KPEX - January, 2013

Change the Weather History Date:

Wednesday, January 16, 2013

  Actual Average (KLJF) Record (KLJF)
Temperature  
Mean Temperature 16 °F -  
Max Temperature 33 °F 21 °F 50 °F (1961)
Min Temperature 0 °F 1 °F -36 °F (1977)
Degree Days  
Heating Degree Days 48    
Moisture  
Dew Point 15 °F    
Average Humidity 77    
Maximum Humidity 97    
Minimum Humidity 52    
Precipitation  
Precipitation 0.00 in - - ()
Sea Level Pressure  
Sea Level Pressure 29.87 in    
Wind  
Wind Speed 12 mph (WNW)    
Max Wind Speed 20 mph    
Max Gust Speed 26 mph    
Visibility 8 miles    
Events Snow    
Averages and records for this station are not official NWS values.
T = Trace of Precipitation, MM = Missing Value Source: NWS Daily Summary

Daily Weather History Graph

Daily Weather History Graph

Search for Another Location

Airport or City:

Trip Planner

Search our weather history database for the weather conditions in past years. The results will help you decide how hot, cold, wet, or windy it might be!

Date:

Astronomy

Jan. 16, 2013 Rise Set
Actual Time 7:54 AM CST 5:04 PM CST
Civil Twilight 7:21 AM CST 5:37 PM CST
Nautical Twilight 6:44 AM CST 6:13 PM CST
Astronomical Twilight 6:09 AM CST 6:48 PM CST
Moon 10:12 AM CST (1/16) 11:16 PM CST (1/16)
Length of Visible Light 10h 15m
Length of Day
9h 10m
Waxing Crescent, 28% of the Moon is Illuminated
Jan 16
Waxing Crescent
Jan 18
First Quarter
Jan 26
Full
Feb 3
Last Quarter
Feb 10
New

Hourly Weather History & Observations

Time (CST) Temp. Windchill Dew Point Humidity Pressure Visibility Wind Dir Wind Speed Gust Speed Precip Events Conditions
12:13 AM 23.7 °F 10.5 °F 12.0 °F 61% 29.71 in 10.0 mi South 16.1 mph 23.0 mph N/A   Overcast
12:33 AM 23.9 °F 11.7 °F 12.7 °F 62% 29.70 in 10.0 mi SSW 13.8 mph 19.6 mph N/A   Overcast
12:53 AM 23.9 °F 10.8 °F 13.6 °F 65% 29.68 in 10.0 mi SSW 16.1 mph - N/A Snow Light Snow
1:13 AM 23.9 °F 10.3 °F 15.4 °F 70% 29.67 in 10.0 mi SSW 17.3 mph 23.0 mph N/A Snow Light Snow
1:33 AM 24.6 °F 10.9 °F 17.6 °F 75% 29.66 in 7.0 mi SSW 18.4 mph 25.3 mph N/A Snow Light Snow
1:53 AM 24.4 °F 10.2 °F 19.9 °F 83% 29.66 in 4.0 mi SSW 19.6 mph 26.5 mph N/A Snow Light Snow
2:33 AM 24.6 °F 10.9 °F 21.0 °F 86% 29.65 in 10.0 mi SSW 18.4 mph 25.3 mph N/A   Overcast
3:13 AM 26.2 °F 15.2 °F 21.6 °F 82% 29.63 in 7.0 mi SW 12.7 mph 19.6 mph N/A   Overcast
3:33 AM 27.3 °F 15.6 °F 23.9 °F 87% 29.63 in 10.0 mi SW 15.0 mph - N/A   Overcast
3:53 AM 27.5 °F 15.9 °F 25.3 °F 92% 29.63 in 3.0 mi WSW 15.0 mph 20.7 mph N/A Snow Light Snow
4:13 AM 28.0 °F 17.5 °F 26.2 °F 93% 29.62 in 4.0 mi WSW 12.7 mph - N/A Snow Light Snow
4:33 AM 28.4 °F 18.0 °F 27.0 °F 94% 29.62 in 3.0 mi SW 12.7 mph - N/A Snow Light Snow
4:53 AM 29.1 °F 19.4 °F 27.5 °F 94% 29.62 in 5.0 mi WSW 11.5 mph - N/A   Overcast
5:13 AM 29.8 °F 20.9 °F 28.4 °F 94% 29.62 in 2.5 mi West 10.4 mph - N/A Snow Light Snow
5:33 AM 30.7 °F 21.4 °F 29.5 °F 95% 29.63 in 10.0 mi West 11.5 mph - N/A   Overcast
5:53 AM 31.1 °F 23.1 °F 30.0 °F 96% 29.63 in 10.0 mi West 9.2 mph - N/A   Overcast
6:33 AM 31.6 °F 24.4 °F 30.2 °F 94% 29.63 in 10.0 mi WSW 8.1 mph - N/A   Overcast
6:53 AM 32.0 °F 24.2 °F 31.3 °F 97% 29.63 in 10.0 mi West 9.2 mph - N/A   Overcast
7:13 AM 32.0 °F 24.2 °F 30.9 °F 96% 29.64 in 10.0 mi West 9.2 mph - N/A   Mostly Cloudy
7:33 AM 32.0 °F 24.2 °F 30.9 °F 96% 29.66 in 10.0 mi West 9.2 mph - N/A   Clear
7:53 AM 32.9 °F 23.7 °F 31.1 °F 93% 29.68 in 10.0 mi West 12.7 mph - N/A   Mostly Cloudy
8:13 AM 33.3 °F 25.1 °F 30.9 °F 91% 29.69 in 10.0 mi WNW 10.4 mph - N/A   Overcast
8:34 AM 33.3 °F 24.1 °F 29.1 °F 85% 29.69 in 10.0 mi WNW 12.7 mph 19.6 mph N/A   Overcast
8:53 AM 32.9 °F 23.7 °F 26.6 °F 78% 29.71 in 10.0 mi NW 12.7 mph - N/A   Overcast
9:13 AM 32.2 °F 25.0 °F 26.6 °F 80% 29.72 in 10.0 mi WNW 8.1 mph - N/A   Overcast
9:34 AM 32.0 °F 24.2 °F 27.3 °F 83% 29.73 in 10.0 mi WNW 9.2 mph - N/A   Overcast
9:53 AM 32.0 °F 25.6 °F 27.3 °F 83% 29.74 in 10.0 mi WNW 6.9 mph - N/A   Overcast
10:13 AM 32.0 °F 25.6 °F 27.3 °F 83% 29.74 in 10.0 mi WNW 6.9 mph - N/A   Overcast
10:33 AM 31.5 °F 24.9 °F 26.6 °F 82% 29.75 in 7.0 mi WNW 6.9 mph - N/A Snow Light Snow
10:53 AM 30.4 °F 21.0 °F 26.2 °F 85% 29.77 in 2.5 mi NW 11.5 mph - N/A Snow Light Snow
11:13 AM 27.9 °F 17.8 °F 23.9 °F 85% 29.78 in 1.5 mi NNW 11.5 mph - N/A Snow Light Snow
11:33 AM 27.0 °F 18.0 °F 23.0 °F 85% 29.79 in 2.0 mi NW 9.2 mph - N/A Snow Light Snow
11:53 AM 26.1 °F 16.2 °F 22.8 °F 88% 29.79 in 1.0 mi NW 10.4 mph - N/A Snow Light Snow
12:13 PM 25.7 °F 17.1 °F 22.8 °F 89% 29.80 in 1.0 mi NW 8.1 mph - N/A Snow Light Snow
12:33 PM 24.8 °F 16.9 °F 22.1 °F 89% 29.80 in 1.0 mi NW 6.9 mph - N/A Snow Light Snow
12:53 PM 25.0 °F 16.3 °F 22.1 °F 89% 29.82 in 1.5 mi NW 8.1 mph - N/A Snow Light Snow
1:13 PM 24.8 °F 16.1 °F 21.7 °F 88% 29.82 in 2.5 mi NW 8.1 mph - N/A Snow Light Snow
1:33 PM 24.4 °F 14.2 °F 20.3 °F 84% 29.84 in 2.5 mi NW 10.4 mph - N/A Snow Light Snow
2:14 PM 23.4 °F 11.1 °F 18.9 °F 83% 29.87 in 10.0 mi NW 13.8 mph - N/A   Overcast
2:33 PM 23.4 °F 12.2 °F 18.1 °F 80% 29.88 in 10.0 mi NW 11.5 mph - N/A   Overcast
2:53 PM 23.0 °F 11.7 °F 17.6 °F 80% 29.90 in 10.0 mi NW 11.5 mph - N/A   Overcast
3:13 PM 22.8 °F 10.4 °F 16.3 °F 76% 29.91 in 10.0 mi NW 13.8 mph - N/A   Overcast
3:33 PM 22.3 °F 9.2 °F 13.8 °F 70% 29.93 in 10.0 mi NW 15.0 mph 18.4 mph N/A   Scattered Clouds
3:53 PM 21.7 °F 11.5 °F 12.2 °F 67% 29.95 in 10.0 mi WNW 9.2 mph 17.3 mph N/A   Clear
4:13 PM 20.7 °F 8.8 °F 10.6 °F 65% 29.98 in 10.0 mi NW 11.5 mph 17.3 mph N/A   Clear
4:33 PM 19.2 °F 5.8 °F 6.8 °F 59% 30.00 in 10.0 mi NW 13.8 mph 19.6 mph N/A   Clear
4:53 PM 18.0 °F 6.9 °F 7.3 °F 63% 30.02 in 10.0 mi WNW 9.2 mph - N/A   Clear
5:13 PM 16.5 °F 5.1 °F 6.6 °F 65% 30.03 in 10.0 mi NW 9.2 mph - N/A   Clear
5:53 PM 14.4 °F 4.3 °F 2.7 °F 60% 30.06 in 10.0 mi NW 6.9 mph - N/A   Clear
6:13 PM 13.8 °F 3.7 °F 1.2 °F 57% 30.08 in 10.0 mi NW 6.9 mph - N/A   Clear
6:33 PM 13.1 °F 0.9 °F -0.9 °F 54% 30.09 in 10.0 mi NW 9.2 mph - N/A   Clear
6:53 PM 12.2 °F -1.0 °F -2.4 °F 52% 30.12 in 10.0 mi WNW 10.4 mph - N/A   Clear
7:14 PM 10.8 °F -2.8 °F -2.2 °F 56% 30.14 in 10.0 mi WNW 10.4 mph 16.1 mph N/A   Clear
7:33 PM 9.9 °F -4.0 °F -4.4 °F 53% 30.14 in 10.0 mi NW 10.4 mph - N/A   Clear
7:53 PM 8.8 °F -3.5 °F -3.8 °F 57% 30.15 in 10.0 mi WNW 8.1 mph - N/A   Clear
8:14 PM 7.3 °F -6.2 °F -3.1 °F 62% 30.16 in 10.0 mi West 9.2 mph - N/A   Clear
8:33 PM 6.4 °F -5.2 °F -4.2 °F 62% 30.18 in 10.0 mi WNW 6.9 mph - N/A   Clear
8:53 PM 6.4 °F -5.2 °F -5.8 °F 57% 30.17 in 10.0 mi West 6.9 mph - N/A   Clear
9:13 PM 5.2 °F -6.7 °F -6.0 °F 60% 30.18 in 10.0 mi WNW 6.9 mph - N/A   Clear
9:33 PM 4.3 °F -11.7 °F -5.8 °F 63% 30.20 in 10.0 mi West 11.5 mph - N/A   Clear
9:53 PM 3.7 °F -8.4 °F -3.6 °F 71% 30.21 in 10.0 mi West 6.9 mph - N/A   Clear
10:13 PM 2.7 °F -15.3 °F -4.0 °F 74% 30.22 in 10.0 mi West 13.8 mph - N/A   Clear
10:33 PM 1.9 °F -10.6 °F -4.5 °F 74% 30.22 in 10.0 mi WNW 6.9 mph - N/A   Clear
10:53 PM 0.9 °F -15.1 °F -5.6 °F 74% 30.23 in 10.0 mi West 10.4 mph - N/A   Clear
11:13 PM 0.3 °F -13.8 °F -6.2 °F 74% 30.23 in 10.0 mi WNW 8.1 mph - N/A   Clear
11:34 PM -0.4 °F -14.7 °F -6.7 °F 75% 30.25 in 10.0 mi NW 8.1 mph - N/A   Clear
11:53 PM -0.4 °F -13.4 °F -7.1 °F 73% 30.25 in 10.0 mi NW 6.9 mph - N/A   Clear